Location: Newark
(51.2625°N, 13.3939°E)
Time: 18:07:04
(UTC+00:00)

deb Explorer IX - Pass Details

Date: 23 November 2019
Orbit: 545 x 1105 km, 38.8° (Epoch: 08 December)

Event Time Altitude Azimuth Distance (km) Brightness Sun altitude
Rises 00:44:29 0° 247° (WSW) 3,761 - -52.0°
Reaches altitude 10° 00:47:45 10° 235° (SW) 2,729 - -51.7°
Maximum altitude 00:52:57 25° 183° (S) 1,722 - -51.1°
Drops below altitude 10° 00:57:36 10° 129° (SE) 2,415 - -50.5°
Sets 01:00:18 0° 116° (ESE) 3,245 - -50.2°
